[[{"header":{"parameterUnit":"m.s-1","parameterCategory":2,"la1":30.2991,"la2":30.254,"lo1":-89.0895,"lo2":-89.0444,"dy":0.0017,"dx":0.0017,"nx":28,"ny":28,"refTime":"2025-07-14T09:00:00:Z","depth":"0","parameterNumber":2,"parameterNumberName":"U-component_of_CURRENTS"},"data":[0,0,0,0,0,0,0,0,0,0,0,0,0,0,0,0,0,0,0,0,0,0,0,0,0,0,0,0,0,0,0,0,0,0,0,0,0,0,0,0,0,0,0,0,0,0,0,0,0,0,0,0,0,0,0,0,0,0,-0.2559,-0.2559,0,-0.2545,-0.2545,-0.2544,-0.2508,-0.2507,-0.2506,-0.2506,-0.2489,-0.2489,-0.2489,0,0,0,0,0,0,0,0,0,0,0,0,0,-0.2627,-0.2625,-0.256,-0.2559,-0.2559,-0.2545,-0.2545,-0.2544,-0.2508,-0.2507,-0.2506,-0.2505,-0.2489,-0.2489,-0.2489,0,0,0,0,0,0,0,0,0,0,0,0,0,-0.2604,-0.2625,-0.256,-0.2539,-0.2537,-0.2545,-0.2545,-0.2544,-0.2508,-0.2507,-0.2506,-0.2505,-0.2488,-0.2489,-0.2489,-0.2517,0,0,-0.2491,-0.2491,0,0,0,0,0,0,0,0,-0.2605,-0.2601,-0.2542,-0.254,-0.2538,-0.2526,-0.2562,-0.2535,-0.2509,-0.252,-0.2506,-0.2504,-0.2502,-0.2501,-0.2502,-0.2516,-0.2515,-0.2491,-0.2491,-0.2491,-0.2491,0,0,0,0,0,0,0,-0.2606,-0.2602,-0.2554,-0.2542,-0.2539,-0.2554,-0.2549,-0.2557,-0.2518,-0.2519,-0.2516,-0.2514,-0.25,-0.2501,-0.2501,-0.2515,-0.2491,-0.2491,-0.2492,-0.2492,-0.256,-0.2561,0,0,0,0,0,0,-0.2605,-0.2603,-0.2555,-0.2554,-0.2568,-0.2554,-0.2548,-0.2532,-0.2518,-0.2515,-0.2515,-0.2512,-0.2501,-0.2501,-0.25,-0.2524,-0.2491,-0.2492,-0.2492,-0.2558,-0.256,-0.2562,0,0,0,0,0,0,-0.2606,-0.26,-0.2555,-0.2579,-0.2574,-0.2553,-0.2536,-0.2532,-0.2525,-0.2515,-0.2511,-0.251,-0.25,-0.25,-0.2508,-0.2523,-0.2492,-0.2492,-0.2556,-0.2559,-0.2561,-0.2576,0,0,0,0,0,0,-0.2608,-0.26,-0.2585,-0.2578,-0.2572,-0.2554,-0.2537,-0.2533,-0.2525,-0.2521,-0.251,-0.2507,-0.2499,-0.2508,-0.2509,-0.2523,-0.2493,-0.2555,-0.2558,-0.256,-0.2573,-0.2578,-0.2582,0,0,0,0,0,-0.261,-0.2584,-0.2584,-0.2578,-0.2552,-0.2554,-0.2553,-0.2535,-0.2526,-0.2524,-0.2523,-0.2507,-0.2527,-0.2509,-0.251,-0.2525,-0.2553,-0.2557,-0.256,-0.2571,-0.2577,-0.2582,0,0,0,0,0,0,-0.2599,-0.2578,-0.2577,-0.2545,-0.2551,-0.2547,-0.2536,-0.2537,-0.2535,-0.2528,-0.2522,-0.252,-0.2539,-0.2535,-0.2516,-0.2557,-0.254,-0.2544,-0.2549,-0.2554,-0.2559,-0.2559,-0.2493,0,0,0,0,0,-0.2594,-0.2566,-0.2569,-0.2542,-0.2545,-0.2546,-0.2543,-0.254,-0.2539,-0.2536,-0.2535,-0.254,-0.2558,-0.2556,-0.2569,-0.2584,-0.2575,-0.2599,-0.2603,-0.2607,-0.2611,-0.261,-0.2614,-0.2573,-0.2573,-0.2573,0,0,-0.2577,-0.2566,-0.2547,-0.2539,-0.2538,-0.2554,-0.254,-0.2535,-0.2552,-0.2537,-0.255,-0.2557,-0.2569,-0.2589,-0.2597,-0.2582,-0.2615,-0.2611,-0.2614,-0.2616,-0.2614,-0.2618,-0.2621,-0.2575,-0.2575,-0.2575,0,0,-0.2553,-0.2529,-0.2514,-0.2527,-0.2533,-0.2543,-0.2546,-0.2553,-0.2555,-0.2576,-0.2578,-0.2596,-0.2608,-0.2625,-0.2634,-0.2677,-0.2645,-0.2677,-0.2689,-0.2688,-0.2691,-0.2693,-0.2681,-0.2682,-0.2671,-0.2671,-0.2671,0,-0.2533,-0.2521,-0.2512,-0.2525,-0.2532,-0.2544,-0.2556,-0.2572,-0.2584,-0.2585,-0.258,-0.2616,-0.2632,-0.2661,-0.2681,-0.2686,-0.2668,-0.2661,-0.2691,-0.2694,-0.2695,-0.2683,-0.2684,-0.2672,-0.2672,-0.2672,-0.2672,0,-0.2521,-0.2518,-0.2512,-0.2531,-0.2545,-0.2549,-0.2582,-0.2594,-0.2601,-0.2612,-0.2635,-0.2658,-0.2671,-0.2691,-0.2701,-0.2729,-0.2705,-0.27,-0.2669,-0.27,-0.2685,-0.2686,-0.2674,-0.2673,-0.2673,-0.2673,0,0,-0.2444,-0.2491,-0.2489,-0.2505,-0.2546,-0.2551,-0.2589,-0.2612,-0.2619,-0.2643,-0.2647,-0.2705,-0.2699,-0.2713,-0.2726,-0.2739,-0.2753,-0.2723,-0.2723,-0.2698,-0.2731,-0.2666,-0.266,-0.2736,-0.2736,-0.2736,-0.2712,0,-0.2432,-0.2455,-0.2487,-0.2512,-0.2524,-0.2561,-0.2591,-0.2618,-0.2634,-0.2645,-0.2672,-0.2686,-0.2712,-0.2711,-0.2732,-0.275,-0.2755,-0.2759,-0.2718,-0.2717,-0.2644,-0.266,-0.2594,-0.2562,-0.2712,-0.2712,-0.2713,0,-0.2405,-0.2425,-0.2447,-0.2494,-0.2502,-0.2525,-0.2553,-0.2585,-0.2617,-0.2627,-0.2644,-0.2656,-0.2696,-0.2705,-0.274,-0.2731,-0.2735,-0.2747,-0.2745,-0.268,-0.2654,-0.2559,-0.2557,-0.2398,-0.2713,-0.2713,-0.2713,0,-0.2338,-0.2391,-0.2402,-0.242,-0.2482,-0.2491,-0.2521,-0.2561,-0.2577,-0.2605,-0.2605,-0.2642,-0.2649,-0.2675,-0.2701,-0.2714,-0.2716,-0.2733,-0.2678,-0.2673,-0.2609,-0.2597,-0.2437,-0.2748,-0.2748,-0.2748,-0.2748,0,-0.2295,-0.2296,-0.2369,-0.237,-0.2378,-0.244,-0.2447,-0.2481,-0.2523,-0.2534,-0.258,-0.2583,-0.2639,-0.2645,-0.2679,-0.2667,-0.2692,-0.2681,-0.2664,-0.2612,-0.2602,-0.2454,-0.2375,-0.2747,-0.2747,-0.2747,-0.2748,0,-0.2194,-0.225,-0.226,-0.2324,-0.2342,-0.2339,-0.2398,-0.2408,-0.2457,-0.2473,-0.2479,-0.2527,-0.2532,-0.2566,-0.2598,-0.2619,-0.2547,-0.2613,-0.2542,-0.2516,-0.233,-0.2255,-0.2193,-0.2141,-0.2563,-0.2561,-0.2559,0,-0.2131,-0.2129,-0.22,-0.2206,-0.2226,-0.2247,-0.2268,-0.2351,-0.2375,-0.2435,-0.2437,-0.2443,-0.2454,-0.2462,-0.2488,-0.2505,-0.2434,-0.2437,-0.2468,-0.2298,-0.2203,-0.2248,-0.2212,-0.2392,-0.2389,-0.2387,-0.2385,0,-0.1991,-0.2026,-0.204,-0.2075,-0.2098,-0.2134,-0.2178,-0.2202,-0.2301,-0.2335,-0.2374,-0.2389,-0.2393,-0.2389,-0.2381,-0.2375,-0.231,-0.2391,-0.2237,-0.2067,-0.2085,-0.2032,-0.242,-0.2365,-0.2367,-0.2369,-0.237,-0.2371,-0.1856,-0.1846,-0.1886,-0.1903,-0.1955,-0.2006,-0.1991,-0.2094,-0.2143,-0.219,-0.2271,-0.2254,-0.226,-0.2253,-0.2237,-0.2076,-0.2166,-0.2021,-0.195,-0.2019,-0.1941,-0.2274,-0.2184,-0.2185,-0.2186,-0.2186,-0.2187,0,-0.1642,-0.1677,-0.1708,-0.1741,-0.1758,-0.1842,-0.1906,-0.19,-0.1947,-0.2047,-0.2089,-0.2035,-0.1992,-0.1942,-0.1833,-0.1682,-0.1727,-0.1548,-0.157,-0.1562,-0.1856,-0.1816,-0.1614,-0.1614,-0.1614,-0.1614,-0.1614,-0.1614,-0.1523,-0.1484,-0.1534,-0.1517,-0.1562,-0.1542,-0.1556,-0.1611,-0.1661,-0.1679,-0.1668,-0.1647,-0.1451,-0.1369,-0.1208,-0.1207,-0.1114,-0.1115,-0.1084,-0.1215,-0.1254,-0.1291,-0.1234,-0.0913,-0.0912,-0.0852,-0.085,-0.0849]},{"header":{"parameterUnit":"m.s-1","parameterCategory":2,"la1":30.2991,"la2":30.254,"lo1":-89.0895,"lo2":-89.0444,"dy":0.0017,"dx":0.0017,"nx":28,"ny":28,"refTime":"2025-07-14T09:00:00:Z","depth":"0","parameterNumber":3,"parameterNumberName":"V-component_of_CURRENTS"},"data":[0,0,0,0,0,0,0,0,0,0,0,0,0,0,0,0,0,0,0,0,0,0,0,0,0,0,0,0,0,0,0,0,0,0,0,0,0,0,0,0,0,0,0,0,0,0,0,0,0,0,0,0,0,0,0,0,0,0,-0.0688,-0.0685,0,-0.0501,-0.0499,-0.0497,-0.0422,-0.0422,-0.0422,-0.0423,-0.0254,-0.025,-0.0245,0,0,0,0,0,0,0,0,0,0,0,0,0,-0.102,-0.1015,-0.0688,-0.0685,-0.0683,-0.0501,-0.0499,-0.0496,-0.0422,-0.0422,-0.0422,-0.0423,-0.0256,-0.025,-0.0245,0,0,0,0,0,0,0,0,0,0,0,0,0,-0.0862,-0.1013,-0.0688,-0.0621,-0.0613,-0.0501,-0.0499,-0.0496,-0.0422,-0.0422,-0.0423,-0.0423,-0.0258,-0.0251,-0.0244,-0.0195,0,0,-0.0223,-0.022,0,0,0,0,0,0,0,0,-0.0871,-0.085,-0.0634,-0.0626,-0.0616,-0.0482,-0.0554,-0.0395,-0.0422,-0.0498,-0.0423,-0.0423,-0.033,-0.0317,-0.0285,-0.0187,-0.018,-0.0222,-0.0218,-0.0215,-0.0213,0,0,0,0,0,0,0,-0.0882,-0.0858,-0.0617,-0.0631,-0.062,-0.0614,-0.0592,-0.0524,-0.0417,-0.0491,-0.0485,-0.0459,-0.0326,-0.0292,-0.0281,-0.0178,-0.0222,-0.0216,-0.0212,-0.0209,-0.0057,-0.0058,0,0,0,0,0,0,-0.0895,-0.0867,-0.0623,-0.0611,-0.0743,-0.0608,-0.0583,-0.0528,-0.0417,-0.04,-0.0459,-0.0456,-0.0304,-0.0289,-0.0275,-0.0217,-0.0215,-0.0208,-0.0204,-0.0057,-0.0057,-0.0058,0,0,0,0,0,0,-0.0902,-0.0874,-0.063,-0.0735,-0.0703,-0.0601,-0.054,-0.0524,-0.0484,-0.0392,-0.0376,-0.0435,-0.0304,-0.0284,-0.0223,-0.021,-0.0205,-0.0199,-0.0057,-0.0057,-0.0057,-0.0098,0,0,0,0,0,0,-0.0912,-0.0877,-0.0838,-0.0734,-0.0697,-0.0557,-0.0539,-0.052,-0.0466,-0.0461,-0.0366,-0.0351,-0.0302,-0.0234,-0.0216,-0.02,-0.0193,-0.0057,-0.0057,-0.0057,-0.0096,-0.01,-0.0102,0,0,0,0,0,-0.0924,-0.0853,-0.0837,-0.0807,-0.0647,-0.0555,-0.0536,-0.0469,-0.0465,-0.0437,-0.0392,-0.0354,-0.0224,-0.0228,-0.0207,-0.0189,-0.0057,-0.0057,-0.0057,-0.0095,-0.0099,-0.0102,0,0,0,0,0,0,-0.0946,-0.0835,-0.0816,-0.0706,-0.0642,-0.0542,-0.0494,-0.0469,-0.0409,-0.0407,-0.0344,-0.0325,-0.0271,-0.0227,-0.0234,-0.0151,-0.0137,-0.0134,-0.0173,-0.0176,-0.0179,-0.018,-0.0187,0,0,0,0,0,-0.0942,-0.0873,-0.078,-0.0694,-0.0663,-0.059,-0.0544,-0.0507,-0.0441,-0.0414,-0.0357,-0.0303,-0.0255,-0.0216,-0.0164,-0.0105,-0.0088,-0.0085,-0.0088,-0.0091,-0.008,-0.0045,-0.0044,-0.0059,-0.0059,-0.0059,0,0,-0.0918,-0.0854,-0.0808,-0.0699,-0.0642,-0.0593,-0.0562,-0.0489,-0.0458,-0.0405,-0.0345,-0.0307,-0.0246,-0.0191,-0.0162,-0.0149,-0.0087,-0.0091,-0.0094,-0.0081,-0.0046,-0.0044,-0.0043,-0.0059,-0.0059,-0.0059,0,0,-0.0863,-0.0792,-0.0735,-0.0692,-0.0617,-0.0579,-0.0566,-0.0481,-0.0451,-0.0395,-0.0364,-0.032,-0.0232,-0.0188,-0.0156,-0.0141,-0.011,-0.0131,-0.0129,-0.0096,-0.0095,-0.0093,-0.0109,-0.0108,-0.0123,-0.0123,-0.0123,0,-0.0844,-0.0763,-0.0705,-0.066,-0.0626,-0.0582,-0.0541,-0.0499,-0.0412,-0.0385,-0.0383,-0.0276,-0.0229,-0.0165,-0.0168,-0.0144,-0.014,-0.012,-0.01,-0.0097,-0.0094,-0.0111,-0.011,-0.0125,-0.0125,-0.0125,-0.0124,0,-0.0769,-0.0715,-0.0677,-0.062,-0.0578,-0.053,-0.0484,-0.0449,-0.0427,-0.0387,-0.0326,-0.0272,-0.0207,-0.0195,-0.0173,-0.013,-0.0142,-0.0116,-0.0092,-0.0095,-0.0113,-0.0111,-0.0128,-0.0127,-0.0127,-0.0126,0,0,-0.0709,-0.0641,-0.0634,-0.0624,-0.0563,-0.0524,-0.0481,-0.0425,-0.0398,-0.0342,-0.03,-0.0235,-0.0213,-0.0178,-0.0149,-0.012,-0.0119,-0.0114,-0.0111,-0.0133,-0.0085,-0.0184,-0.0191,-0.009,-0.0089,-0.0088,-0.012,0,-0.0678,-0.0623,-0.0588,-0.0547,-0.0522,-0.0486,-0.0452,-0.0403,-0.0365,-0.0317,-0.0269,-0.022,-0.0205,-0.0184,-0.0152,-0.0121,-0.0108,-0.0115,-0.0075,-0.0075,-0.0162,-0.0188,-0.0216,-0.0254,-0.0118,-0.0117,-0.0117,0,-0.0635,-0.0612,-0.0574,-0.054,-0.0522,-0.0497,-0.0453,-0.0413,-0.0343,-0.0309,-0.0253,-0.0215,-0.0166,-0.0161,-0.0107,-0.0114,-0.0105,-0.0089,-0.0089,-0.0157,-0.0167,-0.0219,-0.0254,-0.0042,-0.0113,-0.0114,-0.0114,0,-0.0665,-0.0607,-0.0592,-0.0576,-0.0524,-0.0505,-0.0479,-0.0413,-0.0387,-0.031,-0.029,-0.0211,-0.0192,-0.0145,-0.0125,-0.011,-0.0088,-0.0057,-0.014,-0.0149,-0.0152,-0.0163,0.0027,-0.0024,-0.0024,-0.0023,-0.0023,0,-0.0658,-0.0642,-0.0612,-0.0603,-0.0591,-0.054,-0.0514,-0.0466,-0.0409,-0.0388,-0.03,-0.0284,-0.0187,-0.0164,-0.0132,-0.0153,-0.0094,-0.0152,-0.0158,-0.0174,-0.0186,0.0015,0.0183,-0.0025,-0.0024,-0.0024,-0.0024,0,-0.0676,-0.0657,-0.0642,-0.0609,-0.0605,-0.0598,-0.0562,-0.0542,-0.0478,-0.0452,-0.0435,-0.0346,-0.0322,-0.0257,-0.0196,-0.0191,-0.0088,-0.0197,-0.0257,-0.027,-0.0165,-0.0,0.0112,0.0201,-0.0292,-0.0295,-0.0297,0,-0.067,-0.0669,-0.0666,-0.0676,-0.0662,-0.0652,-0.0649,-0.059,-0.0575,-0.0508,-0.051,-0.0464,-0.0467,-0.043,-0.0399,-0.0384,-0.0166,-0.0381,-0.0351,-0.0172,0.0011,0.0072,0.0147,-0.038,-0.0382,-0.0384,-0.0386,0,-0.0657,-0.0668,-0.0661,-0.0699,-0.0713,-0.0723,-0.0717,-0.0727,-0.0667,-0.0668,-0.0667,-0.0666,-0.0637,-0.0652,-0.062,-0.0565,-0.0222,-0.043,-0.0189,-0.0003,0.0029,0.0114,-0.0369,-0.0405,-0.0403,-0.0402,-0.0401,-0.04,-0.0641,-0.0651,-0.0665,-0.0697,-0.0732,-0.0776,-0.0789,-0.0824,-0.0848,-0.087,-0.0849,-0.087,-0.0793,-0.0775,-0.0715,-0.0468,-0.0393,-0.034,-0.0151,-0.0108,-0.0016,-0.0588,-0.0664,-0.0664,-0.0664,-0.0663,-0.0663,0,-0.0596,-0.062,-0.0658,-0.0698,-0.074,-0.0763,-0.0812,-0.0838,-0.0918,-0.1004,-0.1059,-0.0934,-0.0903,-0.0708,-0.0433,-0.0205,-0.0126,0.0014,0.0185,0.0252,-0.0211,-0.0207,-0.0254,-0.0254,-0.0254,-0.0254,-0.0254,-0.0255,-0.0568,-0.0589,-0.0621,-0.0679,-0.0718,-0.0764,-0.0797,-0.0888,-0.0952,-0.0997,-0.0947,-0.0861,-0.031,-0.0018,0.0333,0.0369,0.0658,0.06,0.0794,0.0595,0.0579,0.0564,0.0606,0.0731,0.0733,0.1154,0.116,0.1164]}],[{"header":{"parameterUnit":"m.s-1","parameterCategory":2,"la1":30.2991,"la2":30.254,"lo1":-89.0895,"lo2":-89.0444,"dy":0.0017,"dx":0.0017,"nx":28,"ny":28,"refTime":"2025-07-14T09:00:00:Z","depth":"2","parameterNumber":2,"parameterNumberName":"U-component_of_CURRENTS"},"data":[0,0,0,0,0,0,0,0,0,0,0,0,0,0,0,0,0,0,0,0,0,0,0,0,0,0,0,0,0,0,0,0,0,0,0,0,0,0,0,0,0,0,0,0,0,0,0,0,0,0,0,0,0,0,0,0,0,0,-0.2397,-0.2397,0,-0.2364,-0.2363,-0.2363,-0.2344,-0.2344,-0.2344,-0.2345,-0.2256,-0.2254,-0.2251,0,0,0,0,0,0,0,0,0,0,0,0,0,-0.2454,-0.2453,-0.2397,-0.2397,-0.2396,-0.2364,-0.2363,-0.2363,-0.2344,-0.2344,-0.2345,-0.2345,-0.2257,-0.2254,-0.2251,0,0,0,0,0,0,0,0,0,0,0,0,0,-0.2424,-0.2453,-0.2397,-0.2385,-0.2383,-0.2364,-0.2363,-0.2363,-0.2344,-0.2344,-0.2345,-0.2345,-0.2258,-0.2254,-0.225,-0.2224,0,0,-0.2239,-0.2237,0,0,0,0,0,0,0,0,-0.2426,-0.2422,-0.2387,-0.2386,-0.2384,-0.236,-0.2351,-0.2314,-0.2344,-0.2357,-0.2345,-0.2345,-0.2287,-0.2281,-0.2272,-0.222,-0.2216,-0.2239,-0.2236,-0.2235,-0.2234,0,0,0,0,0,0,0,-0.2428,-0.2423,-0.2382,-0.2387,-0.2385,-0.2385,-0.238,-0.2344,-0.2319,-0.2356,-0.2355,-0.2354,-0.2285,-0.2276,-0.227,-0.2214,-0.2239,-0.2236,-0.2233,-0.2232,-0.2153,-0.2153,0,0,0,0,0,0,-0.2435,-0.2425,-0.2383,-0.2381,-0.2408,-0.2384,-0.2379,-0.2366,-0.232,-0.2314,-0.2354,-0.2354,-0.2282,-0.2274,-0.2266,-0.2239,-0.2235,-0.2231,-0.2229,-0.2152,-0.2153,-0.2153,0,0,0,0,0,0,-0.2436,-0.2431,-0.2384,-0.2405,-0.2399,-0.2383,-0.2368,-0.2365,-0.2359,-0.232,-0.2313,-0.2352,-0.2282,-0.2272,-0.2239,-0.2235,-0.223,-0.2226,-0.2152,-0.2152,-0.2153,-0.218,0,0,0,0,0,0,-0.2438,-0.2431,-0.2424,-0.2405,-0.2398,-0.2381,-0.2368,-0.2365,-0.2359,-0.2358,-0.2315,-0.2307,-0.2281,-0.2245,-0.2235,-0.223,-0.2223,-0.2152,-0.2152,-0.2153,-0.2178,-0.2181,-0.2182,0,0,0,0,0,-0.244,-0.2424,-0.2423,-0.2418,-0.2388,-0.2382,-0.2378,-0.2366,-0.2359,-0.236,-0.2329,-0.2309,-0.224,-0.2242,-0.2231,-0.2224,-0.2152,-0.2152,-0.2153,-0.2178,-0.218,-0.2182,0,0,0,0,0,0,-0.2443,-0.2421,-0.2419,-0.2397,-0.2397,-0.238,-0.2373,-0.2369,-0.2346,-0.2339,-0.2304,-0.2293,-0.2265,-0.2242,-0.2245,-0.2204,-0.2195,-0.2193,-0.2218,-0.222,-0.2222,-0.2221,-0.222,0,0,0,0,0,-0.2442,-0.2421,-0.2416,-0.2398,-0.2399,-0.2388,-0.2383,-0.2379,-0.2358,-0.2349,-0.2321,-0.2288,-0.2257,-0.2238,-0.2209,-0.218,-0.2129,-0.2171,-0.2173,-0.2175,-0.2169,-0.2097,-0.2091,-0.2154,-0.2154,-0.2154,0,0,-0.2435,-0.2422,-0.2409,-0.2397,-0.2391,-0.2393,-0.2385,-0.2379,-0.2374,-0.234,-0.2317,-0.2292,-0.2252,-0.2224,-0.2209,-0.2204,-0.2128,-0.2175,-0.2177,-0.2169,-0.2097,-0.209,-0.2085,-0.2154,-0.2154,-0.2154,0,0,-0.2423,-0.2405,-0.2395,-0.2397,-0.2397,-0.2392,-0.2395,-0.2385,-0.2376,-0.2355,-0.233,-0.2306,-0.2258,-0.2232,-0.2211,-0.2205,-0.2142,-0.2198,-0.2202,-0.2133,-0.2127,-0.2121,-0.2032,-0.2018,-0.2197,-0.2197,-0.2197,0,-0.242,-0.2406,-0.2394,-0.2396,-0.2397,-0.2395,-0.24,-0.2388,-0.2369,-0.2353,-0.2352,-0.2279,-0.2261,-0.2212,-0.2222,-0.2209,-0.2148,-0.2196,-0.2134,-0.2127,-0.212,-0.203,-0.2014,-0.2199,-0.2198,-0.2198,-0.2198,0,-0.2411,-0.2407,-0.2402,-0.24,-0.2401,-0.2402,-0.2398,-0.2391,-0.2379,-0.2362,-0.2319,-0.2287,-0.2241,-0.224,-0.223,-0.2178,-0.2141,-0.2145,-0.2126,-0.2115,-0.2022,-0.2004,-0.22,-0.22,-0.22,-0.2199,0,0,-0.2383,-0.2394,-0.2392,-0.2398,-0.2405,-0.2401,-0.2396,-0.2383,-0.2359,-0.2341,-0.2296,-0.2271,-0.2247,-0.2223,-0.2202,-0.2158,-0.2072,-0.2137,-0.2132,-0.2044,-0.1889,-0.1866,-0.1845,-0.2057,-0.2055,-0.2053,-0.1836,0,-0.2383,-0.2392,-0.2394,-0.2399,-0.2406,-0.2406,-0.2394,-0.2379,-0.2354,-0.2308,-0.2272,-0.2225,-0.2239,-0.2212,-0.2169,-0.2102,-0.203,-0.2129,-0.1916,-0.1909,-0.1887,-0.1826,-0.1689,-0.1484,-0.1819,-0.1816,-0.1814,0,-0.2373,-0.2382,-0.2394,-0.2398,-0.2398,-0.2397,-0.2371,-0.236,-0.2307,-0.2284,-0.2234,-0.2192,-0.2132,-0.2142,-0.1998,-0.2055,-0.1969,-0.1915,-0.1905,-0.1862,-0.1855,-0.1552,-0.144,-0.1784,-0.1787,-0.1789,-0.1791,0,-0.2358,-0.2374,-0.2382,-0.2387,-0.2393,-0.2388,-0.2384,-0.2349,-0.2316,-0.226,-0.2213,-0.214,-0.207,-0.1986,-0.1891,-0.1928,-0.1711,-0.1744,-0.1626,-0.1622,-0.1453,-0.144,-0.1607,-0.1607,-0.1608,-0.1609,-0.1609,0,-0.2352,-0.2351,-0.2375,-0.2379,-0.236,-0.2378,-0.2337,-0.2326,-0.2278,-0.2208,-0.219,-0.2103,-0.2025,-0.1901,-0.1839,-0.167,-0.1656,-0.1598,-0.156,-0.146,-0.145,-0.1683,-0.1695,-0.16,-0.1602,-0.1604,-0.1605,0,-0.2322,-0.2346,-0.2343,-0.2356,-0.2352,-0.2334,-0.2304,-0.2263,-0.2247,-0.215,-0.2127,-0.2032,-0.1891,-0.1796,-0.1628,-0.1573,-0.1446,-0.1381,-0.1266,-0.1221,-0.1411,-0.1426,-0.1223,-0.122,-0.1218,-0.1216,-0.1214,0,-0.2307,-0.2307,-0.2309,-0.2286,-0.2287,-0.2266,-0.2234,-0.2235,-0.2189,-0.2092,-0.2026,-0.1886,-0.1758,-0.1521,-0.1411,-0.1256,-0.1321,-0.1029,-0.1102,-0.1385,-0.1368,-0.1388,-0.1406,-0.0862,-0.0858,-0.0854,-0.0851,0,-0.2256,-0.2253,-0.2241,-0.2208,-0.2178,-0.2146,-0.2112,-0.2069,-0.2042,-0.1962,-0.1832,-0.1735,-0.1535,-0.132,-0.1147,-0.1042,-0.1067,-0.0955,-0.1213,-0.1025,-0.1039,-0.1027,-0.1056,-0.082,-0.0823,-0.0825,-0.0827,-0.0828,-0.2185,-0.2157,-0.2135,-0.2086,-0.2064,-0.201,-0.1938,-0.1895,-0.18,-0.1664,-0.1673,-0.1492,-0.1325,-0.1039,-0.0904,-0.0787,-0.0874,-0.0778,-0.079,-0.0806,-0.0847,-0.0861,-0.0612,-0.0614,-0.0616,-0.0617,-0.0618,0,-0.2077,-0.2048,-0.2007,-0.1948,-0.1891,-0.1914,-0.183,-0.17,-0.1544,-0.152,-0.143,-0.112,-0.0951,-0.0823,-0.0617,-0.0535,-0.0534,-0.0468,-0.0475,-0.0503,-0.0529,-0.0561,-0.0248,-0.0247,-0.0247,-0.0247,0,0,-0.2015,-0.1935,-0.1915,-0.1785,-0.1747,-0.1621,-0.155,-0.1351,-0.1277,-0.1093,-0.1027,-0.108,-0.0908,-0.0674,-0.052,-0.0398,-0.0483,-0.0349,-0.0635,-0.0683,-0.0712,-0.067,-0.0745,0,0,0,0,0]},{"header":{"parameterUnit":"m.s-1","parameterCategory":2,"la1":30.2991,"la2":30.254,"lo1":-89.0895,"lo2":-89.0444,"dy":0.0017,"dx":0.0017,"nx":28,"ny":28,"refTime":"2025-07-14T09:00:00:Z","depth":"2","parameterNumber":3,"parameterNumberName":"V-component_of_CURRENTS"},"data":[0,0,0,0,0,0,0,0,0,0,0,0,0,0,0,0,0,0,0,0,0,0,0,0,0,0,0,0,0,0,0,0,0,0,0,0,0,0,0,0,0,0,0,0,0,0,0,0,0,0,0,0,0,0,0,0,0,0,0.0072,0.0073,0,0.0207,0.0209,0.0211,0.0271,0.0271,0.027,0.027,0.0415,0.0419,0.0423,0,0,0,0,0,0,0,0,0,0,0,0,0,-0.0033,-0.0032,0.0072,0.0073,0.0075,0.0207,0.0209,0.0211,0.0271,0.0271,0.027,0.027,0.0414,0.0419,0.0424,0,0,0,0,0,0,0,0,0,0,0,0,0,0.0048,-0.0032,0.0071,0.0121,0.0127,0.0207,0.0209,0.0211,0.0271,0.0271,0.027,0.027,0.0412,0.0418,0.0424,0.0467,0,0,0.0443,0.0445,0,0,0,0,0,0,0,0,0.0043,0.0052,0.0112,0.0118,0.0124,0.0222,0.0225,0.0297,0.0271,0.0216,0.027,0.027,0.0352,0.0363,0.0389,0.0473,0.048,0.0443,0.0447,0.0449,0.0451,0,0,0,0,0,0,0,0.0037,0.0047,0.0125,0.0114,0.0121,0.0172,0.0182,0.024,0.0284,0.0221,0.0226,0.0241,0.0355,0.0383,0.0393,0.0482,0.0443,0.0448,0.0452,0.0454,0.0614,0.0614,0,0,0,0,0,0,0.0016,0.0041,0.0121,0.0129,0.0082,0.0173,0.0185,0.0191,0.0283,0.0297,0.0241,0.0243,0.0373,0.0385,0.0398,0.0441,0.0449,0.0455,0.0459,0.0613,0.0614,0.0614,0,0,0,0,0,0,0.0013,0.0021,0.0116,0.0089,0.0105,0.0174,0.0181,0.0194,0.0218,0.0298,0.0312,0.0252,0.0373,0.0389,0.0445,0.0447,0.0458,0.0463,0.0612,0.0613,0.0614,0.0535,0,0,0,0,0,0,0.0009,0.0019,0.0008,0.0087,0.0105,0.0159,0.0182,0.0197,0.0228,0.0233,0.0313,0.0326,0.0374,0.0435,0.045,0.0456,0.0468,0.0611,0.0613,0.0614,0.0537,0.0534,0.053,0,0,0,0,0,0.0005,-0.0001,0.0007,0.0016,0.009,0.016,0.0174,0.0223,0.0229,0.0243,0.0292,0.0324,0.0453,0.044,0.0458,0.0465,0.0611,0.0612,0.0614,0.0539,0.0534,0.053,0,0,0,0,0,0,-0.0055,0.0007,0.0017,0.0027,0.0084,0.017,0.0185,0.0217,0.0268,0.0268,0.0333,0.0351,0.0403,0.0447,0.0431,0.0517,0.0537,0.0542,0.0475,0.0471,0.0468,0.044,0.0473,0,0,0,0,0,-0.0075,-0.0067,0.0006,0.001,0.0037,0.0107,0.0136,0.0174,0.0234,0.0255,0.0311,0.037,0.0426,0.0455,0.0515,0.056,0.0588,0.0578,0.0574,0.057,0.0562,0.0591,0.0588,0.0619,0.0619,0.0619,0,0,-0.0099,-0.0065,-0.0062,-0.0002,0.0043,0.0083,0.0124,0.0171,0.0196,0.0264,0.0307,0.0364,0.0436,0.0487,0.0514,0.0521,0.0581,0.0572,0.0568,0.0562,0.0592,0.0588,0.0585,0.062,0.062,0.0619,0,0,-0.0123,-0.0109,-0.01,-0.0055,0.0012,0.0058,0.0066,0.0151,0.0179,0.0234,0.0284,0.0335,0.0426,0.0473,0.0509,0.0524,0.0564,0.0547,0.0504,0.0531,0.0528,0.0526,0.0566,0.0568,0.054,0.054,0.054,0,-0.0157,-0.0136,-0.0086,-0.0055,-0.0029,0.004,0.0064,0.0109,0.0197,0.0212,0.0238,0.0354,0.0419,0.0467,0.0476,0.0515,0.0537,0.0508,0.0523,0.0521,0.052,0.0562,0.0565,0.0537,0.0537,0.0537,0.0538,0,-0.0158,-0.0144,-0.0131,-0.0082,-0.0047,-0.0014,0.0055,0.0084,0.0122,0.0167,0.0223,0.0309,0.0372,0.0406,0.045,0.0475,0.0497,0.0514,0.0523,0.0511,0.0558,0.0562,0.0531,0.0533,0.0534,0.0535,0,0,-0.0226,-0.0151,-0.0149,-0.0134,-0.0061,-0.003,-0.0,0.0049,0.0059,0.0134,0.0152,0.0252,0.0287,0.033,0.039,0.042,0.0445,0.0455,0.0458,0.0476,0.0508,0.0514,0.052,0.0452,0.0453,0.0453,0.0545,0,-0.0245,-0.0212,-0.0167,-0.0145,-0.0121,-0.0066,-0.0045,0.0001,0.0047,0.0084,0.0155,0.0209,0.0261,0.0292,0.0326,0.0422,0.0451,0.0418,0.0533,0.0537,0.0527,0.0523,0.0526,0.0607,0.055,0.0551,0.0551,0,-0.0261,-0.0236,-0.022,-0.0179,-0.0166,-0.0148,-0.012,-0.0086,-0.0026,0.0009,0.0055,0.0119,0.0186,0.0231,0.0351,0.0323,0.0403,0.0472,0.0478,0.051,0.055,0.0611,0.0617,0.0559,0.0558,0.0558,0.0557,0,-0.0329,-0.0279,-0.0277,-0.0258,-0.0197,-0.0196,-0.0169,-0.0118,-0.0087,-0.004,-0.0006,0.0059,0.0127,0.0204,0.0345,0.0347,0.0474,0.05,0.0579,0.0582,0.0622,0.0627,0.057,0.057,0.057,0.057,0.057,0,-0.0365,-0.0363,-0.031,-0.0304,-0.0305,-0.025,-0.0244,-0.021,-0.0153,-0.0114,-0.0049,0.0003,0.0123,0.0216,0.0317,0.0457,0.0452,0.0569,0.06,0.0597,0.0599,0.0586,0.0586,0.0573,0.0573,0.0572,0.0571,0,-0.0429,-0.0394,-0.0385,-0.0341,-0.033,-0.0331,-0.0275,-0.0258,-0.0206,-0.0151,-0.0133,-0.0023,0.0087,0.0203,0.0356,0.0447,0.0563,0.0613,0.0604,0.0631,0.0664,0.066,0.0715,0.0716,0.0717,0.0717,0.0718,0,-0.0458,-0.0459,-0.0422,-0.0413,-0.0392,-0.0376,-0.0354,-0.0295,-0.0264,-0.0157,-0.0128,-0.0016,0.0065,0.0271,0.0446,0.0604,0.0584,0.0691,0.0696,0.0651,0.0676,0.0671,0.0666,0.0734,0.0735,0.0735,0.0736,0,-0.0511,-0.05,-0.0486,-0.0468,-0.0449,-0.0418,-0.0382,-0.0378,-0.0294,-0.0251,-0.0171,-0.0105,0.0136,0.0318,0.0525,0.0614,0.0657,0.0707,0.0667,0.0682,0.0673,0.0695,0.0689,0.074,0.0739,0.0739,0.0739,0.0739,-0.0558,-0.056,-0.0539,-0.0527,-0.0492,-0.047,-0.0469,-0.0424,-0.0399,-0.0278,-0.0177,0.0004,0.0169,0.0504,0.0585,0.0702,0.074,0.0771,0.0768,0.0766,0.0736,0.0726,0.08,0.08,0.08,0.08,0.08,0,-0.0621,-0.0611,-0.0594,-0.0567,-0.0544,-0.0508,-0.0483,-0.0489,-0.0483,-0.0236,-0.0104,0.0087,0.0335,0.0483,0.0709,0.0802,0.0782,0.0759,0.0734,0.0732,0.073,0.0696,0.0751,0.075,0.075,0.0749,0,0,-0.0653,-0.0665,-0.065,-0.063,-0.0601,-0.0582,-0.0585,-0.0593,-0.0452,-0.0296,-0.0051,0.0309,0.0455,0.0574,0.0653,0.0728,0.0695,0.0707,0.0754,0.0717,0.0712,0.076,0.071,0,0,0,0,0]}],[{"header":{"parameterUnit":"m.s-1","parameterCategory":2,"la1":30.2991,"la2":30.254,"lo1":-89.0895,"lo2":-89.0444,"dy":0.0017,"dx":0.0017,"nx":28,"ny":28,"refTime":"2025-07-14T09:00:00:Z","depth":"4","parameterNumber":2,"parameterNumberName":"U-component_of_CURRENTS"},"data":[0,0,0,0,0,0,0,0,0,0,0,0,0,0,0,0,0,0,0,0,0,0,0,0,0,0,0,0,0,0,0,0,0,0,0,0,0,0,0,0,0,0,0,0,0,0,0,0,0,0,0,0,0,0,0,0,0,0,-0.0865,-0.0866,0,-0.0929,-0.093,-0.0931,-0.0985,-0.0986,-0.0986,-0.0987,-0.1079,-0.1081,-0.1083,0,0,0,0,0,0,0,0,0,0,0,0,0,-0.0799,-0.08,-0.0865,-0.0866,-0.0867,-0.0929,-0.093,-0.0931,-0.0985,-0.0986,-0.0986,-0.0987,-0.1078,-0.1081,-0.1083,0,0,0,0,0,0,0,0,0,0,0,0,0,-0.0844,-0.0801,-0.0865,-0.0899,-0.0903,-0.0929,-0.093,-0.0931,-0.0985,-0.0986,-0.0986,-0.0987,-0.1078,-0.1081,-0.1084,-0.1091,0,0,-0.1093,-0.1095,0,0,0,0,0,0,0,0,-0.0841,-0.0847,-0.0894,-0.0897,-0.0901,-0.0948,-0.094,-0.0985,-0.0985,-0.0956,-0.0987,-0.0987,-0.1036,-0.1043,-0.1056,-0.1095,-0.1099,-0.1094,-0.1096,-0.1097,-0.1098,0,0,0,0,0,0,0,-0.0838,-0.0844,-0.0893,-0.0894,-0.0899,-0.0914,-0.0922,-0.0949,-0.0994,-0.0959,-0.0962,-0.0966,-0.1039,-0.1053,-0.1059,-0.1101,-0.1094,-0.1096,-0.1098,-0.1099,-0.1197,-0.1197,0,0,0,0,0,0,-0.0825,-0.0841,-0.0891,-0.0894,-0.087,-0.0915,-0.0923,-0.0934,-0.0993,-0.1002,-0.0965,-0.0968,-0.1047,-0.1055,-0.1062,-0.1128,-0.1097,-0.11,-0.1102,-0.1196,-0.1197,-0.1197,0,0,0,0,0,0,-0.0823,-0.0829,-0.0888,-0.0867,-0.0875,-0.0915,-0.0927,-0.0935,-0.0967,-0.0998,-0.1008,-0.0991,-0.1048,-0.1058,-0.1106,-0.113,-0.1101,-0.1104,-0.1195,-0.1196,-0.1197,-0.1226,0,0,0,0,0,0,-0.0821,-0.0828,-0.0845,-0.0866,-0.0876,-0.0918,-0.0927,-0.0936,-0.0966,-0.0971,-0.1022,-0.103,-0.1049,-0.1101,-0.1109,-0.1134,-0.1106,-0.1194,-0.1196,-0.1197,-0.1224,-0.1228,-0.1231,0,0,0,0,0,-0.0819,-0.0833,-0.0846,-0.0852,-0.0894,-0.0919,-0.0926,-0.0957,-0.0966,-0.0987,-0.1021,-0.103,-0.1115,-0.1105,-0.1114,-0.114,-0.1193,-0.1195,-0.1197,-0.1222,-0.1227,-0.1231,0,0,0,0,0,0,-0.0816,-0.084,-0.0855,-0.0878,-0.0903,-0.0927,-0.0942,-0.0964,-0.1007,-0.1013,-0.1044,-0.1055,-0.1106,-0.1115,-0.1103,-0.117,-0.1154,-0.1157,-0.117,-0.1175,-0.1178,-0.1171,-0.1109,0,0,0,0,0,-0.0821,-0.0839,-0.0864,-0.0885,-0.0891,-0.0919,-0.0937,-0.096,-0.0991,-0.1011,-0.1049,-0.1082,-0.1116,-0.1139,-0.117,-0.1208,-0.1207,-0.1228,-0.1231,-0.1234,-0.1233,-0.1263,-0.1269,-0.1203,-0.1203,-0.1203,0,0,-0.0821,-0.0841,-0.085,-0.0886,-0.09,-0.0917,-0.0932,-0.0959,-0.0989,-0.1013,-0.107,-0.11,-0.1129,-0.1176,-0.1198,-0.1189,-0.1249,-0.1236,-0.1239,-0.1236,-0.1265,-0.1272,-0.1278,-0.1204,-0.1204,-0.1203,0,0,-0.0824,-0.0848,-0.086,-0.0881,-0.091,-0.0926,-0.0936,-0.0973,-0.1008,-0.106,-0.1084,-0.113,-0.1183,-0.1212,-0.123,-0.1268,-0.1267,-0.1277,-0.1293,-0.1322,-0.1327,-0.1333,-0.1322,-0.1326,-0.1278,-0.1278,-0.1278,0,-0.0831,-0.0847,-0.0868,-0.0884,-0.0904,-0.0928,-0.0947,-0.0979,-0.1038,-0.1071,-0.1081,-0.1172,-0.1199,-0.1254,-0.1267,-0.1278,-0.128,-0.1276,-0.1327,-0.1332,-0.1337,-0.1325,-0.1329,-0.128,-0.128,-0.128,-0.1279,0,-0.0827,-0.0855,-0.0858,-0.0888,-0.0916,-0.0933,-0.0972,-0.1014,-0.1053,-0.109,-0.1166,-0.1209,-0.1261,-0.1278,-0.1286,-0.1337,-0.132,-0.1329,-0.1316,-0.1345,-0.133,-0.1334,-0.1282,-0.1282,-0.1281,-0.1281,0,0,-0.0812,-0.085,-0.0855,-0.0874,-0.0922,-0.0939,-0.0991,-0.1045,-0.108,-0.1147,-0.1201,-0.1267,-0.1294,-0.1314,-0.1339,-0.1365,-0.1395,-0.1361,-0.1361,-0.1349,-0.1433,-0.1276,-0.1264,-0.1418,-0.1419,-0.142,-0.1403,0,-0.0807,-0.0828,-0.0862,-0.0895,-0.0905,-0.096,-0.1004,-0.1064,-0.1117,-0.1174,-0.1234,-0.1287,-0.1306,-0.1334,-0.1368,-0.139,-0.1409,-0.1397,-0.1408,-0.1407,-0.1263,-0.1265,-0.1424,-0.1406,-0.1407,-0.1407,-0.1408,0,-0.079,-0.0811,-0.0837,-0.09,-0.091,-0.0938,-0.1013,-0.1064,-0.1147,-0.1193,-0.1262,-0.1302,-0.136,-0.1366,-0.1423,-0.1416,-0.1426,-0.1437,-0.1437,-0.1282,-0.1256,-0.1375,-0.1414,-0.1414,-0.1413,-0.1413,-0.1412,0,-0.075,-0.0798,-0.0819,-0.0837,-0.0905,-0.0941,-0.0983,-0.1067,-0.1118,-0.1203,-0.1237,-0.1315,-0.1346,-0.1393,-0.141,-0.1427,-0.1446,-0.1474,-0.134,-0.1329,-0.1466,-0.1461,-0.1511,-0.1511,-0.1511,-0.1511,-0.1511,0,-0.0725,-0.0747,-0.0796,-0.0808,-0.0842,-0.0909,-0.0966,-0.1022,-0.1106,-0.1155,-0.1238,-0.1268,-0.1357,-0.1379,-0.1407,-0.1357,-0.1444,-0.1329,-0.1314,-0.1475,-0.1471,-0.1467,-0.1462,-0.151,-0.151,-0.151,-0.151,0,-0.0682,-0.0713,-0.0744,-0.0806,-0.0824,-0.0852,-0.0942,-0.098,-0.1063,-0.1128,-0.1154,-0.1233,-0.1239,-0.1289,-0.1335,-0.1316,-0.131,-0.1274,-0.1403,-0.1398,-0.1177,-0.1175,-0.1131,-0.1126,-0.1121,-0.1117,-0.1113,0,-0.0662,-0.067,-0.0727,-0.074,-0.0767,-0.0818,-0.0852,-0.0947,-0.099,-0.1093,-0.1107,-0.1134,-0.1173,-0.1103,-0.1162,-0.1161,-0.1162,-0.1155,-0.1201,-0.1148,-0.114,-0.1144,-0.1148,-0.1106,-0.1104,-0.1103,-0.1102,0,-0.0635,-0.0658,-0.0678,-0.069,-0.0717,-0.0758,-0.081,-0.0831,-0.0944,-0.1019,-0.1028,-0.1029,-0.1007,-0.1013,-0.0989,-0.101,-0.1162,-0.1105,-0.1117,-0.116,-0.1117,-0.1114,-0.1123,-0.1085,-0.1087,-0.1089,-0.109,0,-0.0617,-0.0615,-0.0633,-0.0638,-0.0665,-0.068,-0.0726,-0.0762,-0.0811,-0.0927,-0.0915,-0.0947,-0.0992,-0.093,-0.0926,-0.0898,-0.0908,-0.0921,-0.0943,-0.0962,-0.0911,-0.0831,-0.0685,0,0,0,0,0,-0.0596,-0.0578,-0.0578,-0.0578,-0.0598,-0.0612,-0.0688,-0.0743,-0.0839,-0.0816,-0.087,-0.0849,-0.0817,-0.0826,-0.0761,-0.0839,-0.0906,-0.0761,-0.0933,-0.0992,-0.1012,-0.0965,0,0,0,0,0,0,-0.0577,-0.0577,-0.0557,-0.0519,-0.0504,-0.0526,-0.0571,-0.0641,-0.0642,-0.0737,-0.0714,-0.0781,-0.0749,-0.0822,-0.0734,-0.0736,-0.0825,-0.0779,-0.0777,-0.0981,-0.0999,-0.1014,-0.0973,0,0,0,0,0]},{"header":{"parameterUnit":"m.s-1","parameterCategory":2,"la1":30.2991,"la2":30.254,"lo1":-89.0895,"lo2":-89.0444,"dy":0.0017,"dx":0.0017,"nx":28,"ny":28,"refTime":"2025-07-14T09:00:00:Z","depth":"4","parameterNumber":3,"parameterNumberName":"V-component_of_CURRENTS"},"data":[0,0,0,0,0,0,0,0,0,0,0,0,0,0,0,0,0,0,0,0,0,0,0,0,0,0,0,0,0,0,0,0,0,0,0,0,0,0,0,0,0,0,0,0,0,0,0,0,0,0,0,0,0,0,0,0,0,0,-0.0361,-0.0361,0,-0.0382,-0.0382,-0.0383,-0.0373,-0.0372,-0.0371,-0.037,-0.0347,-0.0347,-0.0348,0,0,0,0,0,0,0,0,0,0,0,0,0,-0.0321,-0.0322,-0.0361,-0.0361,-0.036,-0.0382,-0.0382,-0.0383,-0.0373,-0.0372,-0.0371,-0.0369,-0.0347,-0.0347,-0.0348,0,0,0,0,0,0,0,0,0,0,0,0,0,-0.0344,-0.0323,-0.0361,-0.0355,-0.0354,-0.0381,-0.0382,-0.0383,-0.0373,-0.0372,-0.037,-0.0369,-0.0347,-0.0347,-0.0348,-0.0378,0,0,-0.0349,-0.0349,0,0,0,0,0,0,0,0,-0.0343,-0.0346,-0.0356,-0.0355,-0.0355,-0.0369,-0.036,-0.0378,-0.0373,-0.037,-0.037,-0.0368,-0.0349,-0.0349,-0.0363,-0.0377,-0.0376,-0.0349,-0.0349,-0.0349,-0.0349,0,0,0,0,0,0,0,-0.0341,-0.0345,-0.0373,-0.0356,-0.0355,-0.0354,-0.0356,-0.0364,-0.0369,-0.037,-0.0369,-0.0365,-0.0349,-0.0362,-0.0362,-0.0375,-0.0349,-0.0349,-0.0349,-0.035,-0.0397,-0.0398,0,0,0,0,0,0,-0.0331,-0.0344,-0.0372,-0.0373,-0.034,-0.0356,-0.0358,-0.037,-0.037,-0.0368,-0.0366,-0.0364,-0.0362,-0.0361,-0.0361,-0.0383,-0.0349,-0.035,-0.035,-0.0396,-0.0397,-0.0398,0,0,0,0,0,0,-0.0331,-0.0335,-0.0372,-0.0354,-0.0358,-0.0357,-0.037,-0.0371,-0.0382,-0.0367,-0.0364,-0.0376,-0.0361,-0.036,-0.037,-0.0382,-0.035,-0.035,-0.0394,-0.0396,-0.0397,-0.0436,0,0,0,0,0,0,-0.033,-0.0335,-0.0343,-0.0355,-0.0359,-0.0393,-0.0371,-0.0372,-0.038,-0.0378,-0.0375,-0.0372,-0.036,-0.037,-0.037,-0.0382,-0.035,-0.0393,-0.0395,-0.0397,-0.0433,-0.0439,-0.0443,0,0,0,0,0,-0.0329,-0.0348,-0.0344,-0.0346,-0.037,-0.0394,-0.0397,-0.0393,-0.0382,-0.0398,-0.0391,-0.0372,-0.0382,-0.0371,-0.0372,-0.0384,-0.0392,-0.0395,-0.0397,-0.0431,-0.0438,-0.0443,0,0,0,0,0,0,-0.0338,-0.0349,-0.0344,-0.0366,-0.0378,-0.039,-0.0403,-0.04,-0.0411,-0.0406,-0.0389,-0.0386,-0.04,-0.0391,-0.0379,-0.0404,-0.0383,-0.0385,-0.0409,-0.0415,-0.042,-0.0415,-0.0351,0,0,0,0,0,-0.0343,-0.036,-0.0368,-0.0387,-0.0394,-0.04,-0.0409,-0.0409,-0.0416,-0.042,-0.0416,-0.0412,-0.0414,-0.0412,-0.0416,-0.0433,-0.0398,-0.044,-0.0445,-0.0449,-0.0447,-0.0401,-0.04,-0.0406,-0.0406,-0.0406,0,0,-0.0352,-0.0358,-0.0369,-0.0389,-0.04,-0.0424,-0.0404,-0.0425,-0.0441,-0.0415,-0.044,-0.0433,-0.0423,-0.044,-0.0444,-0.0431,-0.0432,-0.0452,-0.0456,-0.0451,-0.0403,-0.0402,-0.0401,-0.0407,-0.0407,-0.0407,0,0,-0.038,-0.0387,-0.0409,-0.0424,-0.0438,-0.0445,-0.0451,-0.0469,-0.0472,-0.0495,-0.0476,-0.0474,-0.0487,-0.0477,-0.0472,-0.0508,-0.0462,-0.0513,-0.0529,-0.0485,-0.0484,-0.0482,-0.0441,-0.0436,-0.0511,-0.0511,-0.0511,0,-0.039,-0.0417,-0.042,-0.0446,-0.0458,-0.0456,-0.0484,-0.0496,-0.0513,-0.0513,-0.0506,-0.051,-0.0503,-0.0503,-0.0516,-0.0517,-0.0484,-0.0506,-0.0489,-0.0487,-0.0484,-0.0443,-0.0436,-0.0513,-0.0513,-0.0513,-0.0513,0,-0.0431,-0.0454,-0.0472,-0.0501,-0.0518,-0.0545,-0.0554,-0.0571,-0.057,-0.057,-0.0574,-0.0563,-0.0555,-0.0558,-0.0549,-0.0535,-0.0515,-0.0501,-0.0469,-0.0485,-0.0442,-0.0434,-0.0516,-0.0516,-0.0515,-0.0514,0,0,-0.0451,-0.0492,-0.0499,-0.0518,-0.0547,-0.0568,-0.0596,-0.0613,-0.062,-0.0626,-0.0625,-0.0627,-0.0604,-0.0598,-0.058,-0.0547,-0.0506,-0.052,-0.0517,-0.0471,-0.0405,-0.0355,-0.0341,-0.0483,-0.0482,-0.0481,-0.0383,0,-0.0482,-0.0531,-0.0545,-0.0596,-0.0621,-0.063,-0.0653,-0.0666,-0.0667,-0.0669,-0.0641,-0.0641,-0.0623,-0.0616,-0.058,-0.0532,-0.0487,-0.0534,-0.0404,-0.04,-0.0346,-0.0331,-0.0478,-0.0377,-0.0375,-0.0373,-0.0372,0,-0.0515,-0.0542,-0.0592,-0.0631,-0.0644,-0.0674,-0.0698,-0.0718,-0.0715,-0.071,-0.0692,-0.067,-0.0638,-0.0613,-0.0517,-0.0546,-0.0477,-0.0431,-0.0425,-0.0357,-0.0335,-0.0356,-0.0357,-0.0359,-0.036,-0.0361,-0.0362,0,-0.0516,-0.0574,-0.0611,-0.0629,-0.0674,-0.0697,-0.0718,-0.0729,-0.0738,-0.0732,-0.0724,-0.0684,-0.0654,-0.0574,-0.0489,-0.0496,-0.0369,-0.0363,-0.0247,-0.0243,-0.0301,-0.0303,-0.0271,-0.0271,-0.0272,-0.0272,-0.0272,0,-0.0535,-0.057,-0.0617,-0.0641,-0.0684,-0.0709,-0.0741,-0.0757,-0.0759,-0.0752,-0.0738,-0.0704,-0.0638,-0.0564,-0.0484,-0.0341,-0.0358,-0.0239,-0.0208,-0.0322,-0.0328,-0.0295,-0.0299,-0.0268,-0.0269,-0.027,-0.027,0,-0.0535,-0.0566,-0.0616,-0.067,-0.0689,-0.072,-0.0764,-0.0778,-0.0779,-0.0765,-0.0762,-0.0712,-0.0604,-0.053,-0.0397,-0.0323,-0.0207,-0.0147,-0.0278,-0.0258,-0.011,-0.0118,-0.0002,0.0001,0.0003,0.0005,0.0006,0,-0.0541,-0.0565,-0.0634,-0.0665,-0.0696,-0.074,-0.0766,-0.0788,-0.0793,-0.075,-0.0733,-0.0644,-0.0591,-0.0363,-0.0298,-0.0141,-0.0113,-0.0061,-0.008,-0.0098,-0.0079,-0.0091,-0.0101,0.001,0.0011,0.0011,0.0012,0,-0.0554,-0.0579,-0.0617,-0.0672,-0.0716,-0.0759,-0.0791,-0.0786,-0.0783,-0.0781,-0.0659,-0.0552,-0.0424,-0.0301,-0.0189,-0.0079,-0.0108,-0.0036,-0.004,-0.0058,-0.0081,-0.0068,-0.0081,0.002,0.0019,0.0018,0.0018,0,-0.0561,-0.0589,-0.0635,-0.068,-0.0735,-0.0764,-0.0779,-0.075,-0.0741,-0.0676,-0.0624,-0.0497,-0.0433,-0.0265,-0.016,-0.0056,-0.002,0.0012,0.0006,-0.0002,-0.0041,-0.0073,0.0071,0,0,0,0,0,-0.0566,-0.0595,-0.0639,-0.0694,-0.0743,-0.0774,-0.0792,-0.0793,-0.0769,-0.0662,-0.0635,-0.05,-0.0304,-0.0239,-0.0115,-0.0146,-0.0042,-0.0001,-0.0018,0.0064,0.0055,0.0013,0,0,0,0,0,0,-0.0572,-0.0615,-0.0635,-0.0691,-0.0729,-0.0781,-0.0791,-0.0774,-0.0703,-0.0652,-0.0545,-0.0469,-0.0296,-0.0373,-0.0114,-0.0087,-0.0077,0.0083,0.0086,0.007,0.0061,0.0054,0.0008,0,0,0,0,0]}]]